TimeCDT,TemperatureF,Dew PointF,Humidity,Sea Level PressureIn,VisibilityMPH,Wind Direction,Wind SpeedMPH,Gust SpeedMPH,PrecipitationIn,Events,Conditions,WindDirDegrees,DateUTC
12:53 AM,79.0,73.0,82,30.10,10.0,SSE,11.5,-,N/A,,Clear,150,2012-10-13 05:53:00
1:53 AM,79.0,72.0,79,30.08,10.0,SE,12.7,-,N/A,,Clear,140,2012-10-13 06:53:00
2:53 AM,79.0,72.0,79,30.07,10.0,SSE,9.2,-,N/A,,Clear,150,2012-10-13 07:53:00
3:53 AM,78.1,72.0,81,30.06,10.0,SSE,9.2,-,N/A,,Clear,150,2012-10-13 08:53:00
4:53 AM,78.1,72.0,81,30.06,10.0,SSE,10.4,-,N/A,,Clear,150,2012-10-13 09:53:00
5:53 AM,78.1,71.1,79,30.06,10.0,SSE,9.2,-,N/A,,Clear,150,2012-10-13 10:53:00
6:53 AM,77.0,72.0,84,30.06,10.0,SSE,8.1,-,N/A,,Clear,160,2012-10-13 11:53:00
7:53 AM,78.1,71.1,79,30.06,10.0,SSE,12.7,-,N/A,,Clear,160,2012-10-13 12:53:00
8:53 AM,81.0,71.1,72,30.06,10.0,SSE,12.7,-,N/A,,Clear,160,2012-10-13 13:53:00
9:53 AM,82.9,72.0,69,30.08,10.0,SSE,12.7,-,N/A,,Clear,160,2012-10-13 14:53:00
10:53 AM,84.9,73.0,67,30.09,10.0,SSE,17.3,24.2,N/A,,Overcast,160,2012-10-13 15:53:00
11:01 AM,84.2,73.4,70,30.08,10.0,SSE,18.4,23.0,N/A,,Overcast,160,2012-10-13 16:01:00
11:53 AM,84.9,73.9,69,30.07,10.0,SSE,18.4,25.3,N/A,,Overcast,160,2012-10-13 16:53:00
12:53 PM,87.8,73.4,62,30.06,10.0,SSE,21.9,26.5,N/A,,Mostly Cloudy,150,2012-10-13 17:53:00
1:53 PM,86.0,72.0,63,30.03,10.0,SSE,23.0,28.8,N/A,,Overcast,160,2012-10-13 18:53:00
2:53 PM,87.1,73.0,63,30.01,10.0,South,21.9,27.6,N/A,,Overcast,170,2012-10-13 19:53:00
3:53 PM,87.1,73.0,63,29.99,10.0,SSE,17.3,23.0,N/A,,Mostly Cloudy,160,2012-10-13 20:53:00
4:53 PM,86.0,73.0,65,29.98,10.0,SSE,17.3,25.3,N/A,,Mostly Cloudy,160,2012-10-13 21:53:00
5:53 PM,84.0,73.0,69,29.96,10.0,SSE,15.0,25.3,N/A,,Partly Cloudy,150,2012-10-13 22:53:00
7:50 PM,82.4,73.4,74,29.98,10.0,SSE,11.5,19.6,N/A,,Mostly Cloudy,150,2012-10-14 00:50:00
7:53 PM,82.0,73.0,74,29.99,10.0,SSE,10.4,-,N/A,,Mostly Cloudy,150,2012-10-14 00:53:00
8:07 PM,80.6,73.4,79,29.99,10.0,SSE,11.5,-,N/A,,Mostly Cloudy,150,2012-10-14 01:07:00
8:53 PM,80.6,73.4,79,29.99,9.0,SSE,13.8,-,N/A,,Mostly Cloudy,150,2012-10-14 01:53:00
9:53 PM,81.0,73.0,77,30.00,10.0,SSE,13.8,24.2,N/A,,Partly Cloudy,160,2012-10-14 02:53:00
11:53 PM,80.6,73.4,79,29.99,10.0,SSE,12.7,-,N/A,,Clear,160,2012-10-14 04:53:00